Location: Berg
(48.5667°N, 13.9833°E)
Time: 08:05:00
(UTC+00:00)

Cosmos 1455 - Visible Passes

Search period start: 11 August 2020 00:00
Search period end: 21 August 2020 00:00
Orbit: 500 x 521 km, 82.5° (Epoch: 10 August)

Date Brightness Start Highest point End Pass type
(mag) Time Alt. Az. Time Alt. Az. Time Alt. Az.
12 Aug 5.1 03:01:51 10° SE 03:04:33 18° E 03:07:15 10° NE visible
13 Aug 5.2 02:45:51 10° ESE 02:48:05 15° E 02:50:20 10° NE visible
14 Aug 5.3 02:30:04 10° ESE 02:31:39 12° E 02:33:13 10° ENE visible
17 Aug 2.6 03:13:14 10° S 03:17:04 67° E 03:20:56 10° NNE visible
18 Aug 3.0 02:56:47 10° S 03:00:32 52° E 03:04:20 10° NNE visible
19 Aug 3.5 02:40:22 10° SSE 02:44:01 42° E 02:47:42 10° NNE visible
20 Aug 3.8 02:24:01 10° SSE 02:27:31 33° E 02:31:01 10° NNE visible
